Time,TemperatureF,DewpointF,PressureIn,WindDirection,WindDirectionDegrees,WindSpeedMPH,WindSpeedGustMPH,Humidity,HourlyPrecipIn,Conditions,Clouds,dailyrainin,SoftwareType,DateUTC
2013-05-03 00:10:00,67.5,64.5,29.78,WSW,247,1.1,-999.0,90,-99.99,,,0.00,Acu-Link.com,2013-05-03 05:10:00,
2013-05-03 00:25:00,67.5,64.5,29.80,NE,45,0.0,-999.0,90,-99.99,,,0.00,Acu-Link.com,2013-05-03 05:25:00,
2013-05-03 00:40:00,67.5,64.5,29.79,NNW,337,0.0,-999.0,90,-99.99,,,0.00,Acu-Link.com,2013-05-03 05:40:00,
2013-05-03 00:55:00,67.5,64.5,29.81,NW,315,1.1,-999.0,90,-99.99,,,0.03,Acu-Link.com,2013-05-03 05:55:00,
2013-05-03 01:11:00,67.5,64.5,29.79,West,270,1.1,-999.0,90,-99.99,,,0.04,Acu-Link.com,2013-05-03 06:11:00,
2013-05-03 01:26:00,67.5,64.5,29.76,WNW,292,0.0,-999.0,90,-99.99,,,0.04,Acu-Link.com,2013-05-03 06:26:00,
2013-05-03 01:41:00,67.3,64.3,29.80,NE,45,0.0,-999.0,90,-99.99,,,0.04,Acu-Link.com,2013-05-03 06:41:00,
2013-05-03 01:56:00,66.9,63.9,29.78,NNW,337,0.0,-999.0,90,-99.99,,,0.04,Acu-Link.com,2013-05-03 06:56:00,
2013-05-03 02:11:00,66.9,63.9,29.76,NW,315,0.0,-999.0,90,-99.99,,,0.04,Acu-Link.com,2013-05-03 07:11:00,
2013-05-03 02:27:00,66.9,63.9,29.77,WNW,292,0.0,-999.0,90,-99.99,,,0.04,Acu-Link.com,2013-05-03 07:27:00,
2013-05-03 02:42:00,67.1,64.1,29.75,WSW,247,0.0,-999.0,90,-99.99,,,0.04,Acu-Link.com,2013-05-03 07:42:00,
2013-05-03 02:57:00,67.1,64.1,29.76,NNW,337,2.7,-999.0,90,-99.99,,,0.04,Acu-Link.com,2013-05-03 07:57:00,
2013-05-03 03:13:00,67.1,64.1,29.77,WNW,292,1.7,-999.0,90,-99.99,,,0.04,Acu-Link.com,2013-05-03 08:13:00,
2013-05-03 03:28:00,64.0,60.7,29.78,NW,315,11.4,-999.0,89,-99.99,,,0.13,Acu-Link.com,2013-05-03 08:28:00,
2013-05-03 03:43:00,61.2,57.9,29.80,NW,315,3.7,-999.0,89,-99.99,,,0.28,Acu-Link.com,2013-05-03 08:43:00,
2013-05-03 03:58:00,60.3,57.0,29.77,NW,315,6.8,-999.0,89,-99.99,,,0.30,Acu-Link.com,2013-05-03 08:58:00,
2013-05-03 04:14:00,59.7,56.8,29.76,West,270,3.7,-999.0,90,-99.99,,,0.31,Acu-Link.com,2013-05-03 09:14:00,
2013-05-03 04:29:00,59.2,56.3,29.77,NNW,337,5.3,-999.0,90,-99.99,,,0.31,Acu-Link.com,2013-05-03 09:29:00,
2013-05-03 04:44:00,58.6,55.7,29.78,NE,45,6.3,-999.0,90,-99.99,,,0.31,Acu-Link.com,2013-05-03 09:44:00,
2013-05-03 04:59:00,58.6,55.7,29.80,WNW,292,3.2,-999.0,90,-99.99,,,0.31,Acu-Link.com,2013-05-03 09:59:00,
2013-05-03 05:15:00,58.5,55.6,29.76,WNW,292,3.7,-999.0,90,-99.99,,,0.33,Acu-Link.com,2013-05-03 10:15:00,
2013-05-03 05:30:00,58.5,55.6,29.77,NW,315,3.7,-999.0,90,-99.99,,,0.33,Acu-Link.com,2013-05-03 10:30:00,
2013-05-03 05:45:00,58.1,55.2,29.82,NW,315,6.8,-999.0,90,-99.99,,,0.33,Acu-Link.com,2013-05-03 10:45:00,
2013-05-03 06:00:00,57.9,55.0,29.77,NW,315,5.3,-999.0,90,-99.99,,,0.34,Acu-Link.com,2013-05-03 11:00:00,
2013-05-03 06:15:00,57.2,54.3,29.82,NW,315,7.8,-999.0,90,-99.99,,,0.35,Acu-Link.com,2013-05-03 11:15:00,
2013-05-03 06:31:00,56.7,53.8,29.80,NNW,337,6.8,-999.0,90,-99.99,,,0.35,Acu-Link.com,2013-05-03 11:31:00,
2013-05-03 06:46:00,56.5,53.6,29.84,NE,45,4.7,-999.0,90,-99.99,,,0.36,Acu-Link.com,2013-05-03 11:46:00,
2013-05-03 07:01:00,56.1,52.9,29.83,West,270,10.4,-999.0,89,-99.99,,,0.36,Acu-Link.com,2013-05-03 12:01:00,
2013-05-03 07:16:00,55.9,52.7,29.82,WNW,292,5.8,-999.0,89,-99.99,,,0.36,Acu-Link.com,2013-05-03 12:16:00,
2013-05-03 07:31:00,55.0,51.8,29.84,West,270,7.3,-999.0,89,-99.99,,,0.36,Acu-Link.com,2013-05-03 12:31:00,
2013-05-03 08:02:00,54.1,50.9,29.85,West,270,5.8,-999.0,89,-99.99,,,0.36,Acu-Link.com,2013-05-03 13:02:00,
2013-05-03 08:17:00,54.0,50.8,29.88,NW,315,15.5,-999.0,89,-99.99,,,0.36,Acu-Link.com,2013-05-03 13:17:00,
2013-05-03 08:32:00,53.8,50.3,29.87,NNW,337,8.9,-999.0,88,-99.99,,,0.36,Acu-Link.com,2013-05-03 13:32:00,
2013-05-03 08:48:00,54.1,50.3,29.81,WNW,292,7.8,-999.0,87,-99.99,,,0.36,Acu-Link.com,2013-05-03 13:48:00,
2013-05-03 09:03:00,54.3,49.9,29.86,NW,315,4.7,-999.0,85,-99.99,,,0.36,Acu-Link.com,2013-05-03 14:03:00,
2013-05-03 09:18:00,53.6,49.8,29.88,West,270,6.3,-999.0,87,-99.99,,,0.36,Acu-Link.com,2013-05-03 14:18:00,
2013-05-03 09:33:00,53.6,49.8,29.88,West,270,5.3,-999.0,87,-99.99,,,0.36,Acu-Link.com,2013-05-03 14:33:00,
2013-05-03 09:48:00,53.2,49.1,29.85,WNW,292,8.9,-999.0,86,-99.99,,,0.36,Acu-Link.com,2013-05-03 14:48:00,
2013-05-03 10:04:00,54.0,49.9,29.85,NW,315,10.4,-999.0,86,-99.99,,,0.36,Acu-Link.com,2013-05-03 15:04:00,
2013-05-03 10:19:00,53.6,49.2,29.86,WNW,292,7.3,-999.0,85,-99.99,,,0.36,Acu-Link.com,2013-05-03 15:19:00,
2013-05-03 10:34:00,54.3,49.6,29.83,West,270,7.3,-999.0,84,-99.99,,,0.36,Acu-Link.com,2013-05-03 15:34:00,
2013-05-03 10:49:00,54.5,49.1,29.86,NNE,22,5.3,-999.0,82,-99.99,,,0.36,Acu-Link.com,2013-05-03 15:49:00,
2013-05-03 11:04:00,55.2,48.8,29.83,SW,225,10.9,-999.0,79,-99.99,,,0.36,Acu-Link.com,2013-05-03 16:04:00,
2013-05-03 11:20:00,55.2,49.1,29.84,NE,45,3.7,-999.0,80,-99.99,,,0.36,Acu-Link.com,2013-05-03 16:20:00,
2013-05-03 11:35:00,54.9,48.5,29.89,WNW,292,3.7,-999.0,79,-99.99,,,0.36,Acu-Link.com,2013-05-03 16:35:00,
2013-05-03 11:50:00,56.7,49.2,29.82,WNW,292,6.3,-999.0,76,-99.99,,,0.36,Acu-Link.com,2013-05-03 16:50:00,
2013-05-03 12:05:00,55.4,48.3,29.84,WNW,292,7.3,-999.0,77,-99.99,,,0.36,Acu-Link.com,2013-05-03 17:05:00,
2013-05-03 12:20:00,56.7,49.9,29.87,NW,315,3.7,-999.0,78,-99.99,,,0.36,Acu-Link.com,2013-05-03 17:20:00,
2013-05-03 12:36:00,57.6,49.7,29.83,ENE,67,2.7,-999.0,75,-99.99,,,0.36,Acu-Link.com,2013-05-03 17:36:00,
2013-05-03 12:51:00,58.1,48.7,29.84,West,270,12.5,-999.0,71,-99.99,,,0.36,Acu-Link.com,2013-05-03 17:51:00,
2013-05-03 13:06:00,57.2,48.6,29.83,NNW,337,4.2,-999.0,73,-99.99,,,0.36,Acu-Link.com,2013-05-03 18:06:00,
2013-05-03 13:21:00,56.1,47.6,29.84,WNW,292,7.8,-999.0,73,-99.99,,,0.36,Acu-Link.com,2013-05-03 18:21:00,
2013-05-03 13:37:00,54.9,47.5,29.82,ESE,112,8.3,-999.0,76,-99.99,,,0.36,Acu-Link.com,2013-05-03 18:37:00,
2013-05-03 13:52:00,54.7,48.0,29.83,NW,315,5.8,-999.0,78,-99.99,,,0.36,Acu-Link.com,2013-05-03 18:52:00,
2013-05-03 14:07:00,53.2,46.9,29.82,WNW,292,14.5,-999.0,79,-99.99,,,0.36,Acu-Link.com,2013-05-03 19:07:00,
2013-05-03 14:22:00,54.5,47.1,29.85,NW,315,4.7,-999.0,76,-99.99,,,0.36,Acu-Link.com,2013-05-03 19:22:00,
2013-05-03 14:37:00,55.2,46.7,29.84,WNW,292,13.5,-999.0,73,-99.99,,,0.36,Acu-Link.com,2013-05-03 19:37:00,
2013-05-03 14:53:00,56.8,46.7,29.81,WNW,292,4.7,-999.0,69,-99.99,,,0.36,Acu-Link.com,2013-05-03 19:53:00,
2013-05-03 15:08:00,58.8,47.1,29.81,SSW,202,4.2,-999.0,65,-99.99,,,0.36,Acu-Link.com,2013-05-03 20:08:00,
2013-05-03 15:23:00,57.2,46.3,29.86,NNE,22,4.7,-999.0,67,-99.99,,,0.36,Acu-Link.com,2013-05-03 20:23:00,
2013-05-03 15:38:00,57.6,45.9,29.80,WNW,292,13.0,-999.0,65,-99.99,,,0.36,Acu-Link.com,2013-05-03 20:38:00,
2013-05-03 15:53:00,57.2,45.5,29.82,WSW,247,5.3,-999.0,65,-99.99,,,0.36,Acu-Link.com,2013-05-03 20:53:00,
2013-05-03 16:09:00,55.4,45.4,29.82,NW,315,9.9,-999.0,69,-99.99,,,0.36,Acu-Link.com,2013-05-03 21:09:00,
2013-05-03 16:24:00,54.7,45.9,29.86,West,270,5.3,-999.0,72,-99.99,,,0.36,Acu-Link.com,2013-05-03 21:24:00,
2013-05-03 16:39:00,56.3,45.1,29.84,WNW,292,7.8,-999.0,66,-99.99,,,0.36,Acu-Link.com,2013-05-03 21:39:00,
2013-05-03 16:54:00,55.8,44.6,29.84,NNE,22,5.3,-999.0,66,-99.99,,,0.36,Acu-Link.com,2013-05-03 21:54:00,
2013-05-03 17:10:00,55.2,45.2,29.81,WNW,292,4.7,-999.0,69,-99.99,,,0.36,Acu-Link.com,2013-05-03 22:10:00,
2013-05-03 17:25:00,54.3,44.0,29.86,NNE,22,6.3,-999.0,68,-99.99,,,0.36,Acu-Link.com,2013-05-03 22:25:00,
2013-05-03 17:40:00,55.4,43.8,29.81,WNW,292,6.8,-999.0,65,-99.99,,,0.36,Acu-Link.com,2013-05-03 22:40:00,
2013-05-03 17:55:00,54.9,42.5,29.82,West,270,3.2,-999.0,63,-99.99,,,0.36,Acu-Link.com,2013-05-03 22:55:00,
2013-05-03 18:10:00,54.3,42.0,29.83,SW,225,9.4,-999.0,63,-99.99,,,0.36,Acu-Link.com,2013-05-03 23:10:00,
2013-05-03 18:26:00,54.3,43.2,29.86,NE,45,7.8,-999.0,66,-99.99,,,0.36,Acu-Link.com,2013-05-03 23:26:00,
2013-05-03 18:41:00,54.9,41.7,29.87,NNW,337,7.3,-999.0,61,-99.99,,,0.36,Acu-Link.com,2013-05-03 23:41:00,
2013-05-03 18:56:00,53.8,41.5,29.84,NW,315,13.0,-999.0,63,-99.99,,,0.36,Acu-Link.com,2013-05-03 23:56:00,
2013-05-03 19:12:00,52.2,40.4,29.84,NNE,22,6.3,-999.0,64,-99.99,,,0.36,Acu-Link.com,2013-05-04 00:12:00,
2013-05-03 19:27:00,52.0,41.0,29.86,NW,315,4.7,-999.0,66,-99.99,,,0.36,Acu-Link.com,2013-05-04 00:27:00,
2013-05-03 19:42:00,51.1,41.3,29.85,ESE,112,2.7,-999.0,69,-99.99,,,0.36,Acu-Link.com,2013-05-04 00:42:00,
2013-05-03 19:57:00,50.4,41.0,29.87,North,0,1.7,-999.0,70,-99.99,,,0.36,Acu-Link.com,2013-05-04 00:57:00,
2013-05-03 20:12:00,49.5,40.9,29.88,NE,45,2.2,-999.0,72,-99.99,,,0.36,Acu-Link.com,2013-05-04 01:12:00,
2013-05-03 20:28:00,48.6,41.0,29.89,NNE,22,1.7,-999.0,75,-99.99,,,0.36,Acu-Link.com,2013-05-04 01:28:00,
2013-05-03 20:43:00,48.6,41.4,29.88,ESE,112,1.1,-999.0,76,-99.99,,,0.36,Acu-Link.com,2013-05-04 01:43:00,
2013-05-03 20:58:00,47.8,41.3,29.88,West,270,1.7,-999.0,78,-99.99,,,0.36,Acu-Link.com,2013-05-04 01:58:00,
2013-05-03 21:13:00,47.1,40.9,29.95,NNW,337,1.7,-999.0,79,-99.99,,,0.36,Acu-Link.com,2013-05-04 02:13:00,
2013-05-03 21:28:00,46.8,41.0,29.89,ESE,112,0.0,-999.0,80,-99.99,,,0.36,Acu-Link.com,2013-05-04 02:28:00,
2013-05-03 21:44:00,46.4,40.9,29.92,South,180,1.7,-999.0,81,-99.99,,,0.36,Acu-Link.com,2013-05-04 02:44:00,
2013-05-03 21:59:00,45.9,41.3,29.90,West,270,0.0,-999.0,84,-99.99,,,0.36,Acu-Link.com,2013-05-04 02:59:00,
2013-05-03 22:14:00,45.5,41.0,29.96,West,270,0.0,-999.0,84,-99.99,,,0.36,Acu-Link.com,2013-05-04 03:14:00,
2013-05-03 22:29:00,44.8,40.6,29.96,NW,315,0.0,-999.0,85,-99.99,,,0.36,Acu-Link.com,2013-05-04 03:29:00,
2013-05-03 22:44:00,44.1,39.9,29.90,SSE,157,0.0,-999.0,85,-99.99,,,0.36,Acu-Link.com,2013-05-04 03:44:00,
2013-05-03 23:00:00,43.7,39.8,29.93,WNW,292,0.0,-999.0,86,-99.99,,,0.36,Acu-Link.com,2013-05-04 04:00:00,
2013-05-03 23:15:00,43.3,39.7,29.93,West,270,0.0,-999.0,87,-99.99,,,0.36,Acu-Link.com,2013-05-04 04:15:00,
2013-05-03 23:30:00,42.8,39.5,29.92,West,270,0.0,-999.0,88,-99.99,,,0.36,Acu-Link.com,2013-05-04 04:30:00,
2013-05-03 23:45:00,42.3,39.0,29.90,WSW,247,0.0,-999.0,88,-99.99,,,0.36,Acu-Link.com,2013-05-04 04:45:00,